sat.trackr.live / text

‹ back to catalog

STARLINK-2740

NORAD 48690 · 2021-044BE

PAYLOAD ACTIVE UNKNOWN

§ Identity

Operator
Country
US
Launch date
2021-05-26
Launch site
AFETR
Launch vehicle
Mass (kg)
RCS (m²)

Purposes: comms

External: N2YO · Heavens-Above · Gunter

§ Orbital elements

Epoch: 2026-09-15T01:05:33.684000Z

Period
94.01 min
Inclination
53.1597°
Eccentricity
0.0001454
Mean motion
15.31708464 rev/d
Perigee alt
469.7 km
Apogee alt
471.7 km
Semi-major
6,848.9 km
B*
2.3282e-5
RAAN
274.1074°
Arg perigee
86.2554°
Mean anomaly
273.8614°
Rev number
29,337

§ Raw data

STARLINK-27401 48690U 21044BE  26258.04552875  .00000357  00000+0  23282-4 0  99922 48690  53.1597 274.1074 0001454  86.2554 273.8614 15.31708464293372

JSON: /api/v1/satellites/48690 · /tle

For live sub-satellite position, see the globe view (requires WebGL).

§ Visibility from observer

Set your observer location to see the next 7 days of passes ≥ 10°. The values pass through the URL so the page stays shareable.

No JS? Fill the form by hand. The geolocation button needs JavaScript.